Location: Foligno
(42.9600°N, 12.7050°E)
Time: 01:27:52
(UTC+02:00)

ISS - Pass Details

Date: 18 July 2018
Orbit: 402 x 408 km, 51.6° (Epoch: 22 July)

Event Time Altitude Azimuth Distance (km) Brightness Sun altitude
Exits shadow 23:58:08 35° 9° (N) 676 -2.3 -23.7°
Drops below altitude 10° 00:00:33 10° 47° (NE) 1,468 -0.7 -23.8°
Sets 00:02:43 0° 55° (NE) 2,331 0.2 -24.0°
